Starlink 31909

operational
NORAD ID: 59663 Int'l Des: 2024-084 Owner: SPXS Country: US Constellation: starlink
LEOCIRCULAR

About Starlink 31909

Description loading...

Live Position

Loading 3D Globe...

Upcoming Passes

Altitude History

Altitude vs Time

uPlot chart will show altitude changes over time

Two-Line Element Set

1 59663U 24084K 25305.57002899 -.00001368 00000-0 -40195-4 0 9995
2 59663 43.0007 44.9853 0001173 256.1404 103.9317 15.27573660 84785
Epoch: Nov 1, 2025 • Age: 11 hours

Current Status

Altitude 486.9 km
Velocity 7.63 km/s
Sub-Earth Point 42.70°N, 65.12°E
Launch Date May 6, 2024
Age 1.4 years
Type internet

Technical Details

Classification Payload
Mass 730.00 kg
Dry Mass 700.00 kg
Total Mass 730.00 kg
Length 0.30 m
Diameter 4.10 m
Span 29.00 m
Shape Box + pan
Manufacturer SPXS
Bus Type Starlink V2M
Phase Status In Orbit
Owner/State SPXS/US

Large Constellations

Loading constellations...